{"data":{"norad_id":67073,"intl_designator":"2025-297B","name":"RAISE-4","alt_names":[],"object_type":"PAYLOAD","status":"ACTIVE","operator":null,"country":"JPN","launch_date":"2025-12-14","launch_site_code":"RLLB","launch_vehicle":null,"mission":null,"orbit_class":"UNKNOWN","rcs_meters":null,"size_class":null,"mass_kg":null,"dimensions":null,"purposes":[],"wikipedia_slug":null,"has_3d_model":false,"image_url":null,"decayed_at":null,"tle_current":{"epoch":"2026-09-20T16:05:29.783904Z","epoch_age_seconds":93866,"freshness":"FRESH","line1":"1 67073U 25297B   26263.67048361  .00002260  00000+0  14434-3 0  9990","line2":"2 67073  97.5253  49.8256 0013583  71.9994 288.2714 15.09590642 42299","mean_motion":15.09590642,"eccentricity":0.0013583,"inclination_deg":97.5253,"raan_deg":49.8256,"arg_perigee_deg":71.9994,"mean_anomaly_deg":288.2714,"bstar":0.00014434,"rev_number":4229,"period_min":95.390098476776,"perigee_km":528.05648574263,"apogee_km":546.84336918978,"semimajor_km":6915.5869274662,"source":"CELESTRAK","updated_at":"2026-09-21T09:00:16.414423Z"}}}